EW1895 Weather Reports


time (UTC)temp
C
wind
direction
speed
KPH
gust
KPH
rain 1hr
cm
rain 24hr
cm
rain mn
cm
humidity
%
barometer
mb
20260902194542 36 132 0.0 1.6 0.00 0.00 0.00 50 1017.1
20260902193040 36 146 0.0 3.2 0.00 0.00 0.00 52 1016.8
20260902191543 36 105 0.0 1.6 0.00 0.00 0.00 52 1016.9
20260902190041 36 275 0.0 4.8 0.00 0.00 0.00 50 1017.1
20260902184536 37 167 0.0 3.2 0.00 0.00 0.00 50 1017.1
20260902183033 36 103 0.0 3.2 0.00 0.00 0.00 51 1017.3
20260902181531 36 113 0.0 1.6 0.00 0.00 0.00 51 1017.4
20260902180030 36 175 0.0 8.0 0.00 0.00 0.00 51 1017.5
20260902174530 36 346 0.0 1.6 0.00 0.00 0.00 51 1017.7
20260902173029 36 157 0.0 6.4 0.00 0.00 0.00 51 1017.7
20260902171529 36 327 0.0 0.0 0.00 0.00 0.00 53 1017.6
20260902170025 36 336 0.0 0.0 0.00 0.00 0.00 52 1017.7
20260902164522 35 93 0.0 0.0 0.00 0.00 0.00 54 1017.7
20260902163025 35 299 0.0 0.0 0.00 0.00 0.00 51 1017.8
20260902161519 35 298 0.0 0.0 0.00 0.00 0.00 52 1017.8
20260902160017 35 298 0.0 0.0 0.00 0.00 0.00 52 1017.9
20260902154516 35 360 0.0 0.0 0.00 0.00 0.00 54 1018.0
20260902153012 33 319 0.0 0.0 0.00 0.00 0.00 59 1018.0
20260902151517 33 319 0.0 0.0 0.00 0.00 0.00 59 1018.1
20260902150010 33 253 0.0 0.0 0.00 0.00 0.00 59 1018.2
20260902144510 32 253 0.0 0.0 0.00 0.00 0.00 62 1018.1
20260902143103 32 340 0.0 0.0 0.00 0.00 0.00 65 1018.2
20260902141559 31 340 0.0 0.0 0.00 0.00 0.00 65 1018.2
20260902140057 30 340 0.0 0.0 0.00 0.00 0.00 68 1017.9
20260902134549 29 340 0.0 0.0 0.00 0.00 0.00 72 1017.9
20260902133045 27 340 0.0 0.0 0.00 0.00 0.00 81 1017.8
20260902131542 26 340 0.0 0.0 0.00 0.00 0.00 84 1017.7
20260902130039 25 340 0.0 0.0 0.00 0.00 0.00 88 1017.7
20260902124540 24 340 0.0 0.0 0.00 0.00 0.00 89 1017.6
20260902123035 23 340 0.0 0.0 0.00 0.00 0.00 91 1017.6
20260902121536 23 340 0.0 0.0 0.00 0.00 0.00 92 1017.7
20260902120034 22 340 0.0 0.0 0.00 0.00 0.00 92 1017.7
20260902114535 22 340 0.0 0.0 0.00 0.00 0.00 93 1017.7
20260902113033 22 340 0.0 0.0 0.00 0.00 0.00 92 1017.7
20260902111532 22 340 0.0 0.0 0.00 0.00 0.00 92 1017.7
20260902110031 23 340 0.0 0.0 0.00 0.00 0.00 92 1017.6
20260902104538 23 340 0.0 0.0 0.00 0.00 0.00 92 1017.4
20260902103028 23 340 0.0 0.0 0.00 0.00 0.00 92 1017.4
20260902101535 23 340 0.0 0.0 0.00 0.00 0.00 92 1017.3
20260902100027 23 340 0.0 0.0 0.00 0.00 0.00 92 1017.1
20260902094525 23 340 0.0 0.0 0.00 0.00 0.00 92 1017.0
20260902093034 23 340 0.0 0.0 0.00 0.00 0.00 92 1016.9
20260902091526 23 340 0.0 0.0 0.00 0.00 0.00 92 1016.9
20260902090025 23 340 0.0 0.0 0.00 0.00 0.00 92 1016.8
20260902084524 23 340 0.0 0.0 0.00 0.00 0.00 92 1017.0
20260902083023 23 340 0.0 0.0 0.00 0.00 0.00 92 1017.0
20260902081520 23 340 0.0 0.0 0.00 0.00 0.00 91 1017.1
20260902080019 23 340 0.0 0.0 0.00 0.00 0.00 90 1016.7
20260902074518 23 340 0.0 0.0 0.00 0.00 0.00 90 1016.6
20260902073016 23 340 0.0 0.0 0.00 0.00 0.00 88 1016.7
20260902071516 23 340 0.0 0.0 0.00 0.00 0.00 88 1016.7
20260902070015 24 340 0.0 0.0 0.00 0.00 0.00 88 1016.6
20260902064514 24 340 0.0 0.0 0.00 0.00 0.00 88 1016.5
20260902063012 24 340 0.0 0.0 0.00 0.00 0.00 89 1016.5
20260902061520 23 340 0.0 0.0 0.00 0.00 0.00 90 1016.6
20260902060010 23 340 0.0 0.0 0.00 0.00 0.00 91 1016.6
20260902054509 23 340 0.0 0.0 0.00 0.00 0.00 90 1016.5
20260902053009 23 340 0.0 0.0 0.00 0.00 0.00 89 1016.4
20260902051509 23 340 0.0 0.0 0.00 0.00 0.00 89 1016.4
20260902050010 24 340 0.0 0.0 0.00 0.00 0.00 88 1016.5
20260902044508 24 340 0.0 0.0 0.00 0.00 0.00 88 1016.5
20260902043007 24 340 0.0 0.0 0.00 0.00 0.00 87 1016.4
20260902041508 25 340 0.0 0.0 0.00 0.00 0.00 86 1016.2
20260902040008 25 340 0.0 0.0 0.00 0.00 0.00 86 1016.2
20260902034507 25 340 0.0 0.0 0.00 0.00 0.00 85 1016.0
20260902033010 25 340 0.0 0.0 0.00 0.00 0.00 84 1015.7
20260902031506 25 340 0.0 0.0 0.00 0.00 0.00 84 1015.7
20260902030006 25 340 0.0 0.0 0.00 0.00 0.00 83 1015.8
20260902024506 26 340 0.0 0.0 0.00 0.00 0.00 83 1015.7
20260902023006 26 340 0.0 0.0 0.00 0.00 0.00 82 1015.8
20260902021512 26 340 0.0 0.0 0.00 0.00 0.00 82 1015.8
20260902020006 26 340 0.0 0.0 0.00 0.00 0.00 81 1015.7
20260902014504 26 340 0.0 0.0 0.00 0.00 0.00 81 1015.6
20260902013004 26 340 0.0 0.0 0.00 0.00 0.00 83 1015.3
20260902011505 26 340 0.0 0.0 0.00 0.00 0.00 82 1015.1
20260902010010 27 340 0.0 0.0 0.00 0.00 0.00 81 1014.9
20260902004512 27 340 0.0 0.0 0.00 0.00 0.00 79 1014.8
20260902003004 28 340 0.0 0.0 0.00 0.00 0.00 78 1014.6
20260902001503 28 340 0.0 0.0 0.00 0.00 0.00 78 1014.6
20260902000003 28 340 0.0 0.0 0.00 0.00 0.00 79 1014.6
20260901234502 29 340 0.0 0.0 0.00 0.00 0.00 77 1014.7
20260901233002 30 340 0.0 0.0 0.00 0.00 0.00 75 1014.6
20260901231502 30 340 0.0 0.0 0.00 0.00 0.00 71 1014.6
20260901230101 31 340 0.0 0.0 0.00 0.00 0.00 67 1014.7
20260901224601 31 340 0.0 0.0 0.00 0.00 0.00 65 1014.9
20260901223059 32 340 0.0 0.0 0.00 0.00 0.00 63 1014.9
20260901221600 32 340 0.0 0.0 0.00 0.00 0.00 62 1015.0
20260901214559 33 340 0.0 0.0 0.00 0.00 0.00 61 1015.1
20260901213058 33 340 0.0 0.0 0.00 0.00 0.00 55 1015.2
20260901211559 33 340 0.0 0.0 0.00 0.00 0.00 60 1015.1
20260901210056 34 340 0.0 0.0 0.00 0.00 0.00 56 1015.2
20260901204555 35 340 0.0 0.0 0.00 0.00 0.00 51 1015.4
20260901203055 36 340 0.0 0.0 0.00 0.00 0.00 51 1015.3
20260901201553 36 340 0.0 0.0 0.00 0.00 0.00 51 1015.5
20260901200106 35 340 0.0 0.0 0.00 0.00 0.00 52 1015.7